Home   Weather   Nesodden   Past weeks

Flag for Norway Past Weather in Nesodden, Norway — Yesterday and Last 2 Weeks

Now
48 °F

Passing clouds.


Feels Like: 41 °F
Forecast: 32 / 36 °F
Wind: 20 mph from Southwest

Location: Statfjord B

Current Time: Dec 9, 2016 at 8:19:13 pm

Latest Report: Dec 9, 2016 at 7:50 pm


Visibility: N/A

Pressure: 29.71 "Hg

Humidity: 100%

Dew Point: 48 °F

Location of NesoddenLocation

Past Weather in Nesodden — Graph

°F

Nesodden Temperature Yesterday

Maximum temperature yesterday: 52 °F (at 12:20 am)
Minimum temperature yesterday: 50 °F (at 12:50 am)
Average temperature yesterday: 50 °F

High & Low Weather Summary for the Past Weeks

 TemperatureHumidityPressure
High52 °F (Dec 7, 9:50 pm)100% (Nov 24, 6:20 pm)30.51 "Hg (Nov 24, 6:20 pm)
Low39 °F (Dec 1, 6:20 pm)42% (Nov 27, 6:50 am)29.36 "Hg (Dec 7, 11:50 pm)
Average46 °F79%30.06 "Hg
* Reported Nov 24 6:20 pm — Dec 9 6:50 pm, Nesodden, Weather by CustomWeather, © 2016

Note: Actual official high and low records may vary slightly from our data, if they occured in-between our weather recording intervals... More about our weather records

Advertising

Nesodden Weather History for the Previous 24 Hours

Scroll right to see more
 ConditionsComfort  
Time TempWeatherWind HumidityBarometerVisibility
6:50 pm
Fri, Dec 9
50 °FPassing clouds.21 mph94%29.74 "HgN/A
6:20 pm50 °FPartly cloudy.22 mph94%29.74 "HgN/A
5:50 pm48 °FPartly cloudy.20 mph94%29.74 "HgN/A
5:20 pm50 °FPassing clouds.22 mph94%29.74 "HgN/A
4:50 pm50 °FPassing clouds.17 mph94%29.77 "HgN/A
4:20 pm50 °FPartly cloudy.18 mph94%29.80 "HgN/A
3:50 pm50 °FPassing clouds.18 mph94%29.80 "HgN/A
3:20 pm50 °FPartly cloudy.15 mph94%29.83 "HgN/A
2:50 pm50 °FPassing clouds.17 mph94%29.83 "HgN/A
2:20 pm50 °FPartly sunny.15 mph94%29.83 "HgN/A
1:50 pm50 °FPartly sunny.N/A88%29.86 "HgN/A
1:20 pm50 °FPartly sunny.16 mph88%29.86 "HgN/A
12:50 pm50 °FPartly sunny.13 mph88%29.86 "HgN/A
12:20 pm48 °FPartly sunny.10 mph87%29.86 "HgN/A
11:50 am48 °FPartly sunny.10 mph82%29.86 "HgN/A
11:20 am48 °FPartly sunny.7 mph82%29.86 "HgN/A
10:50 am48 °FPartly sunny.12 mph82%29.89 "HgN/A
10:20 am48 °FBroken clouds.13 mph82%29.86 "HgN/A
9:50 am48 °FPartly sunny.15 mph82%29.86 "HgN/A
9:20 am48 °FPartly sunny.22 mph82%29.86 "HgN/A
8:50 am48 °FPassing clouds.20 mph82%29.86 "HgN/A
8:20 am48 °FPassing clouds.21 mph82%29.86 "HgN/A
7:50 am48 °FOvercast.22 mph87%29.83 "HgN/A
7:20 am48 °FPassing clouds.25 mph82%29.83 "HgN/A
6:50 am48 °FPassing clouds.24 mph87%29.83 "HgN/A
6:20 am48 °FPassing clouds.26 mph87%29.83 "HgN/A
5:50 am48 °FPassing clouds.30 mph82%29.83 "HgN/A
5:20 am48 °FOvercast.30 mph87%29.83 "HgN/A
4:50 am48 °FOvercast.36 mph82%29.83 "HgN/A
4:20 am48 °FPassing clouds.33 mph82%29.83 "HgN/A
3:50 am50 °FPassing clouds.38 mph76%29.80 "HgN/A
3:20 am50 °FOvercast.37 mph76%29.80 "HgN/A
2:50 am50 °FPassing clouds.40 mph76%29.80 "HgN/A
2:20 am50 °FPassing clouds.43 mph71%29.80 "HgN/A
1:50 am50 °FPassing clouds.40 mph76%29.80 "HgN/A
12:50 am50 °FPassing clouds.44 mph76%29.80 "HgN/A
12:20 am50 °FPassing clouds.44 mph71%29.80 "HgN/A
11:50 pm
Thu, Dec 8
50 °FPassing clouds.45 mph71%29.80 "HgN/A
11:20 pm50 °FPassing clouds.43 mph76%29.77 "HgN/A
10:50 pm50 °FPassing clouds.39 mph82%29.77 "HgN/A
10:20 pm50 °FPassing clouds.39 mph82%29.77 "HgN/A
9:50 pm50 °FPassing clouds.39 mph76%29.77 "HgN/A
9:20 pm50 °FPassing clouds.41 mph82%29.77 "HgN/A
8:50 pm50 °FPassing clouds.51 mph82%29.77 "HgN/A
8:20 pm50 °FPassing clouds.38 mph88%29.77 "HgN/A
Weather by CustomWeather, © 2016

See weather overviewHow to use our weather pages